Estación de Campanacura

Ultimos registro cada 15 minutos 53
Estación Fecha / Hora Temperatura Humedad Lluvia Velocidad Dirección Radiación Presion
53 Campanacura 08-05-2026 13:00 10,4 18,5 0 0 73 129,4 1006,9
52 Campanacura 08-05-2026 12:45 10,5 18,4 0 0 53 93,1 1007
51 Campanacura 08-05-2026 12:30 10,5 18,2 0 0,5 51 181,9 1006,9
50 Campanacura 08-05-2026 12:15 10,7 17,8 0 0 58 264,4 1006,9
49 Campanacura 08-05-2026 12:00 10 19 0,4 0 46 123,1 1007
48 Campanacura 08-05-2026 11:45 10 20,2 0,6 0 39 124,4 1007
47 Campanacura 08-05-2026 11:30 10,2 21,4 0,2 0,5 46 123,1 1007
46 Campanacura 08-05-2026 11:15 10,1 21,6 0 1 45 206,9 1006,8
45 Campanacura 08-05-2026 11:00 10,3 21,9 0 1 31 243,1 1007,3
44 Campanacura 08-05-2026 10:45 9,6 20,7 0 0,5 17 185,6 1007,3
43 Campanacura 08-05-2026 10:30 9 20,7 0 0 6 238,1 1007,1
42 Campanacura 08-05-2026 10:15 8,9 20,8 0 0 4 99,4 1007,4
41 Campanacura 08-05-2026 10:00 8,3 22,6 0,4 0 347 155,6 1007,4
40 Campanacura 08-05-2026 09:45 8,5 23,7 0,4 0 324 85,6 1007,9
39 Campanacura 08-05-2026 09:30 8,5 26 0,2 0 324 58,1 1007,9
38 Campanacura 08-05-2026 09:15 8,8 26,7 0,2 0 324 46,9 1008
37 Campanacura 08-05-2026 09:00 8,7 26,2 0 0 1 48,1 1007,9
36 Campanacura 08-05-2026 08:45 8,3 24,3 0 0 3 35,6 1007,6
35 Campanacura 08-05-2026 08:30 8,1 23 0 0 0 28,1 1007,5
34 Campanacura 08-05-2026 08:15 7,9 20,9 0 0 358 20,6 1007,3
33 Campanacura 08-05-2026 08:00 7,7 21 0 0 351 6,9 1007,3
32 Campanacura 08-05-2026 07:45 7,6 21,4 0 0 341 1,9 1007,5
31 Campanacura 08-05-2026 07:30 7,6 21,7 0 0 305 0,6 1007,6
30 Campanacura 08-05-2026 07:15 7,6 21,9 0 0 291 0,6 1007,8
29 Campanacura 08-05-2026 07:00 7,5 22,5 0 0 291 0,6 1007,9
28 Campanacura 08-05-2026 06:45 7,5 22,7 0 0 291 0,6 1008
27 Campanacura 08-05-2026 06:30 7,5 23,2 0 0 291 0,6 1007,9
26 Campanacura 08-05-2026 06:15 7,5 22,9 0 0 289 0,6 1008,1
25 Campanacura 08-05-2026 06:00 7,3 23,2 0 0 289 0,6 1008,1
24 Campanacura 08-05-2026 05:45 7,5 23,8 0 0 288 0,6 1008
23 Campanacura 08-05-2026 05:30 7,8 23,1 0 0 236 0,6 1008,3
22 Campanacura 08-05-2026 05:15 7,7 22,7 0 0 215 0,6 1008,6
21 Campanacura 08-05-2026 05:00 7,7 22 0 0 213 0,6 1008,4
20 Campanacura 08-05-2026 04:45 7,7 21,7 0 0 215 0,6 1008,4
19 Campanacura 08-05-2026 04:30 7,6 21,6 0 0 216 0,6 1008,5
18 Campanacura 08-05-2026 04:15 7,6 21,5 0 0 216 0,6 1008,5
17 Campanacura 08-05-2026 04:00 7,5 21,8 0 0 216 0,6 1008,7
16 Campanacura 08-05-2026 03:45 7,5 21,9 0 0 216 0,6 1008,7
15 Campanacura 08-05-2026 03:30 7,4 22,1 0 0 216 0,6 1008,7
14 Campanacura 08-05-2026 03:15 7,3 22,3 0 0 216 0,6 1008,9
13 Campanacura 08-05-2026 03:00 7,3 22,5 0 0 216 0,6 1009,1
12 Campanacura 08-05-2026 02:45 7,3 22,4 0 0 215 0,6 1009,4
11 Campanacura 08-05-2026 02:30 7,2 22,7 0 0 215 0,6 1010
10 Campanacura 08-05-2026 02:15 7,1 23 0 0 215 0,6 1010,1
9 Campanacura 08-05-2026 02:00 7,2 23,1 0 0 215 0,6 1009,9
8 Campanacura 08-05-2026 01:45 7,3 23,5 0 0 215 0,6 1010,5
7 Campanacura 08-05-2026 01:30 7,2 24,1 0 0 215 0,6 1010,8
6 Campanacura 08-05-2026 01:15 7,1 25,2 0 0 215 0,6 1010,7
5 Campanacura 08-05-2026 01:00 6,9 26 0 0 215 0,6 1010,7
4 Campanacura 08-05-2026 00:45 6,7 27,1 0 0 215 0,6 1010,9
3 Campanacura 08-05-2026 00:30 6,8 27,7 0 0 215 0,6 1011
2 Campanacura 08-05-2026 00:15 6,8 29,5 0 0 215 0,6 1011,1
1 Campanacura 08-05-2026 00:00 7 30,3 0 0 215 0,6 1011